Weather History for Greenville/Spartanburg, SC

Change the Weather History Date:

Tuesday, April 29, 2014

  Actual Average Record
Temperature  
Mean Temperature 68 °F 64 °F  
Max Temperature 77 °F 76 °F 91 °F (1917)
Min Temperature 59 °F 52 °F 32 °F (1992)
Degree Days  
Heating Degree Days 0 3  
Month to date heating degree days 136 170  
Since 1 July heating degree days 3172 3003  
Cooling Degree Days 3 2  
Month to date cooling degree days 41 39  
Year to date cooling degree days 41 47  
Growing Degree Days 18 (Base 50)    
Moisture  
Dew Point 60 °F    
Average Humidity 75    
Maximum Humidity 93    
Minimum Humidity 56    
Precipitation  
Precipitation T in 0.11 in 3.34 in (1963)
Month to date precipitation 4.87 3.25  
Year to date precipitation 15.20 15.56  
Snow  
Snow 0.00 in 0.00 in 0.00 in ()
Month to date snowfall 0.0 0.0  
Since 1 July snowfall 7.2 4.7  
Snow Depth 0.00 in    
Sea Level Pressure  
Sea Level Pressure 29.86 in    
Wind  
Wind Speed 7 mph (NE)    
Max Wind Speed 14 mph    
Max Gust Speed 21 mph    
Visibility 10 miles    
Events Rain    
T = Trace of Precipitation, MM = Missing Value Source: NWS Daily Summary

Daily Weather History Graph

Daily Weather History Graph

Search for Another Location

Airport:

Trip Planner

Search our weather history database for the weather conditions in past years. The results will help you decide how hot, cold, wet, or windy it might be!

Date:

Astronomy

Apr. 29, 2014 Rise Set
Actual Time 6:40 AM EDT 8:12 PM EDT
Civil Twilight 6:13 AM EDT 8:39 PM EDT
Nautical Twilight 5:41 AM EDT 9:11 PM EDT
Astronomical Twilight 5:07 AM EDT 9:45 PM EDT
Moon 6:57 AM EDT (4/29) 8:50 PM EDT (4/29)
Length of Visible Light 14h 25m
Length of Day
13h 32m
New Moon, 0% of the Moon is Illuminated
Apr 29
New Moon
May 6
First Quarter
May 14
Full
May 21
Last Quarter
May 28
New

Hourly Weather History & Observations

Time (EDT) Temp. Dew Point Humidity Pressure Visibility Wind Dir Wind Speed Gust Speed Precip Events Conditions
12:53 AM 69.1 °F 64.0 °F 84% 29.79 in 10.0 mi SE 9.2 mph - N/A   Partly Cloudy
1:53 AM 70.0 °F 64.0 °F 81% 29.80 in 10.0 mi South 4.6 mph - N/A   Mostly Cloudy
2:53 AM 68.0 °F 64.0 °F 87% 29.79 in 10.0 mi NE 6.9 mph - N/A   Partly Cloudy
3:53 AM 64.9 °F 57.9 °F 78% 29.79 in 10.0 mi NE 8.1 mph - N/A   Scattered Clouds
4:53 AM 62.1 °F 55.9 °F 80% 29.80 in 10.0 mi NE 8.1 mph - N/A   Clear
5:53 AM 61.0 °F 55.0 °F 81% 29.80 in 10.0 mi NE 6.9 mph - N/A   Overcast
6:53 AM 60.1 °F 55.9 °F 86% 29.82 in 10.0 mi ENE 8.1 mph - N/A   Mostly Cloudy
7:53 AM 60.1 °F 57.0 °F 90% 29.83 in 10.0 mi Calm Calm - 0.00 in Rain Light Rain
8:53 AM 60.8 °F 57.2 °F 88% 29.87 in 10.0 mi Calm Calm - N/A   Overcast
9:33 AM 61.0 °F 59.0 °F 93% 29.85 in 10.0 mi NNE 6.9 mph - 0.00 in   Overcast
9:35 AM 61.0 °F 59.0 °F 93% 29.85 in 10.0 mi NNE 8.1 mph - 0.00 in   Overcast
9:53 AM 62.1 °F 59.0 °F 90% 29.84 in 10.0 mi NNE 6.9 mph - 0.00 in   Mostly Cloudy
10:25 AM 62.1 °F 59.0 °F 90% 29.87 in 10.0 mi NNE 9.2 mph - N/A   Overcast
10:53 AM 62.6 °F 59.0 °F 88% 29.88 in 10.0 mi NE 9.2 mph - N/A   Mostly Cloudy
11:08 AM 64.0 °F 60.1 °F 87% 29.88 in 10.0 mi NE 8.1 mph - N/A   Mostly Cloudy
11:53 AM 69.1 °F 62.1 °F 78% 29.86 in 10.0 mi ENE 6.9 mph - N/A   Clear
12:53 PM 73.0 °F 64.0 °F 73% 29.84 in 10.0 mi NE 6.9 mph - N/A   Scattered Clouds
1:53 PM 73.9 °F 64.0 °F 71% 29.85 in 10.0 mi SSE 8.1 mph - N/A   Mostly Cloudy
2:53 PM 75.9 °F 62.1 °F 62% 29.85 in 10.0 mi SSW 6.9 mph - N/A   Scattered Clouds
3:53 PM 75.9 °F 61.0 °F 60% 29.85 in 10.0 mi South 9.2 mph - N/A   Mostly Cloudy
4:53 PM 75.2 °F 60.8 °F 61% 29.89 in 10.0 mi NNE 8.1 mph - N/A   Scattered Clouds
5:53 PM 77.0 °F 60.8 °F 57% 29.89 in 10.0 mi NNE 9.2 mph - N/A   Clear
6:53 PM 71.1 °F 63.0 °F 75% 29.88 in 10.0 mi NE 9.2 mph - N/A   Partly Cloudy
7:53 PM 64.0 °F 59.0 °F 84% 29.88 in 10.0 mi NE 8.1 mph - N/A   Clear
8:53 PM 62.1 °F 59.0 °F 90% 29.91 in 10.0 mi NE 8.1 mph - N/A   Clear
9:39 PM 61.0 °F 57.9 °F 90% 29.96 in 10.0 mi NE 10.4 mph - N/A   Mostly Cloudy
9:53 PM 60.1 °F 57.9 °F 93% 29.96 in 9.0 mi NE 5.8 mph - N/A   Mostly Cloudy
10:37 PM 60.1 °F 57.9 °F 93% 29.98 in 8.0 mi NNE 8.1 mph - N/A   Overcast
10:53 PM 60.1 °F 57.9 °F 93% 29.96 in 8.0 mi NNE 10.4 mph - N/A   Overcast
11:53 PM 59.0 °F 57.0 °F 93% 29.97 in 5.0 mi NE 8.1 mph - N/A   Overcast